DW5566 Weather Reports


Display with metric or nautical units.
time (UTC)temp
F
wind
direction
speed
MPH
gust
MPH
rain 1hr
in
rain 24hr
in
rain mn
in
humidity
%
barometer
mb
20181120211520 60 197 1.0 5.0 0.00 0.51 0.51 87 1015.1
20181120210035 60 228 1.0 6.0 0.00 0.51 0.51 87 1015.1
20181120204545 60 178 2.0 6.0 0.00 0.51 0.51 87 1015.1
20181120203058 60 189 2.0 7.0 0.00 0.51 0.51 87 1015.0
20181120201515 61 207 1.0 7.0 0.00 0.51 0.51 86 1015.0
20181120200019 61 248 3.0 7.0 0.00 0.51 0.51 87 1014.8
20181120194535 61 210 1.0 5.0 0.00 0.51 0.51 87 1014.7
20181120193016 62 204 2.0 6.0 0.00 0.51 0.51 87 1014.5
20181120191508 62 240 2.0 5.0 0.00 0.51 0.51 87 1014.6
20181120190034 62 248 3.0 7.0 0.00 0.51 0.51 87 1014.4
20181120184507 62 272 2.0 7.0 0.00 0.51 0.51 86 1014.4
20181120183008 63 243 2.0 7.0 0.00 0.51 0.51 86 1014.3
20181120181523 63 186 2.0 6.0 0.00 0.51 0.51 85 1014.2
20181120180002 63 214 2.0 5.0 0.00 0.51 0.51 85 1014.1
20181120174644 63 234 3.0 7.0 0.00 0.51 0.51 84 1014.0
20181120174500 63 225 3.0 7.0 0.00 0.51 0.51 84 1014.0
20181120173245 63 235 3.0 8.0 0.00 0.51 0.51 84 1014.0
20181120171646 64 236 3.0 7.0 0.00 0.51 0.51 84 1013.7
20181120170410 64 217 5.0 9.0 0.00 0.51 0.51 84 1013.7
20181120164703 64 261 4.0 9.0 0.00 0.51 0.51 85 1013.6
20181120163145 64 263 3.0 8.0 0.00 0.51 0.51 84 1013.5
20181120161630 64 233 5.0 9.0 0.00 0.51 0.51 82 1013.5
20181120160146 65 224 6.0 10.0 0.00 0.51 0.51 84 1013.4
20181120154659 64 265 9.0 14.0 0.00 0.51 0.51 83 1013.4
20181120153133 64 259 8.0 11.0 0.00 0.51 0.51 85 1013.3
20181120151700 64 260 6.0 10.0 0.00 0.51 0.51 85 1013.3
20181120150200 65 258 6.0 11.0 0.00 0.51 0.51 84 1013.1
20181120144635 64 251 8.0 11.0 0.00 0.51 0.51 85 1013.2
20181120143117 65 261 8.0 11.0 0.00 0.51 0.51 84 1013.1
20181120141630 65 250 9.0 12.0 0.00 0.51 0.51 82 1013.0
20181120140140 65 248 9.0 13.0 0.00 0.51 0.51 84 1013.1
20181120134655 64 262 7.0 11.0 0.00 0.51 0.51 84 1013.1
20181120133056 64 229 7.0 13.0 0.00 0.51 0.51 88 1013.2
20181120131602 64 261 9.0 14.0 0.00 0.51 0.51 88 1013.3
20181120130107 63 276 10.0 14.0 0.01 0.51 0.51 87 1013.3
20181120124619 63 248 10.0 14.0 0.01 0.51 0.51 89 1013.4
20181120123102 62 259 5.0 15.0 0.01 0.51 0.51 90 1013.4
20181120121611 62 259 12.0 24.0 0.01 0.51 0.51 89 1013.8
20181120120049 63 280 13.0 22.0 0.01 0.52 0.50 85 1013.8
20181120114629 64 259 16.0 20.0 0.04 0.52 0.50 86 1013.7
20181120113109 63 214 4.0 8.0 0.08 0.52 0.50 90 1013.7
20181120111541 61 218 2.0 6.0 0.09 0.51 0.50 91 1013.9
20181120110057 61 248 2.0 9.0 0.09 0.51 0.50 91 1014.0
20181120104610 61 229 8.0 11.0 0.06 0.48 0.46 90 1014.0
20181120103131 61 251 5.0 11.0 0.02 0.44 0.43 89 1014.0
20181120101540 61 230 6.0 12.0 0.00 0.43 0.41 88 1013.7
20181120100132 61 208 6.0 13.0 0.00 0.43 0.41 87 1013.4
20181120094553 62 264 5.0 16.0 0.00 0.43 0.41 88 1013.3
20181120093045 61 183 5.0 14.0 0.00 0.43 0.41 89 1013.0
20181120091527 61 229 5.0 17.0 0.01 0.43 0.41 89 1012.5
20181120090024 61 221 4.0 11.0 0.01 0.43 0.41 89 1012.4
20181120084527 60 241 5.0 11.0 0.01 0.43 0.41 90 1012.1
20181120083009 59 269 4.0 11.0 0.01 0.43 0.41 91 1012.0
20181120081505 58 207 2.0 10.0 0.05 0.42 0.40 91 1011.9
20181120080005 58 134 4.0 11.0 0.10 0.42 0.40 91 1011.7
20181120074706 58 196 3.0 8.0 0.10 0.42 0.40 91 1011.4
20181120073134 57 250 5.0 11.0 0.10 0.42 0.40 91 1011.2
20181120071633 58 225 6.0 12.0 0.06 0.37 0.35 91 1010.9
20181120070158 57 260 6.0 13.0 0.01 0.31 0.30 90 1010.6
20181120064558 57 248 6.0 17.0 0.02 0.31 0.30 90 1010.3
20181120063121 57 199 5.0 12.0 0.02 0.31 0.30 90 1010.1
20181120061733 57 254 6.0 17.0 0.02 0.31 0.30 90 1009.7
20181120060105 57 289 5.0 11.0 0.02 0.31 0.28 90 1009.5
20181120054621 57 242 5.0 15.0 0.01 0.30 0.28 90 1009.4
20181120053131 57 290 6.0 15.0 0.01 0.28 0.28 90 1009.0
20181120051617 57 214 6.0 15.0 0.01 0.28 0.28 90 1008.9
20181120050114 56 225 7.0 17.0 0.02 0.35 0.28 90 1008.6
20181120044626 56 229 8.0 16.0 0.02 0.35 0.28 90 1008.6
20181120043116 56 207 9.0 15.0 0.08 0.34 0.27 90 1008.5
20181120041605 56 191 7.0 18.0 0.09 0.34 0.27 89 1008.4
20181120040121 56 191 6.0 20.0 0.09 0.37 0.26 89 1008.4
20181120034556 56 20 7.0 17.0 0.09 0.37 0.26 89 1008.2
20181120033054 56 265 6.0 16.0 0.02 0.30 0.19 89 1008.3
20181120031634 56 207 7.0 19.0 0.06 0.28 0.18 88 1008.2
20181120030103 56 247 7.0 16.0 0.08 0.35 0.17 88 1008.2
20181120024605 56 252 6.0 15.0 0.12 0.34 0.17 88 1008.2
20181120023058 56 127 7.0 16.0 0.16 0.34 0.17 88 1008.2
20181120021542 56 222 7.0 14.0 0.12 0.28 0.12 87 1008.7
20181120020025 56 211 6.0 15.0 0.09 0.27 0.09 85 1008.8
20181120014600 57 210 6.0 14.0 0.04 0.21 0.04 82 1008.7
20181120013022 58 246 7.0 15.0 0.01 0.18 0.01 79 1008.3
20181120011516 59 219 8.0 15.0 0.00 0.17 0.00 76 1008.2
20181120010013 59 131 6.0 18.0 0.00 0.17 0.00 76 1008.4
20181120004519 59 201 6.0 15.0 0.00 0.17 0.00 76 1008.4
20181120003013 59 162 7.0 15.0 0.00 0.17 0.00 77 1008.7
20181120001506 59 196 4.0 16.0 0.00 0.17 0.00 77 1008.7
20181120000010 58 182 6.0 14.0 0.00 0.19 0.00 78 1008.6
20181119234639 58 176 7.0 14.0 0.00 0.19 0.00 79 1008.7
20181119233155 58 172 6.0 14.0 0.00 0.19 0.00 78 1008.9
20181119231643 58 207 5.0 13.0 0.00 0.19 0.00 78 1008.9
20181119230150 58 225 6.0 14.0 0.00 0.19 0.00 78 1009.1
20181119224636 57 203 5.0 14.0 0.00 0.20 0.19 79 1009.4
20181119223200 57 214 5.0 14.0 0.00 0.20 0.19 79 1009.4
20181119221634 57 230 6.0 14.0 0.00 0.20 0.19 79 1009.5
20181119220134 57 232 6.0 14.0 0.00 0.20 0.19 79 1009.4
20181119214712 57 209 5.0 14.0 0.00 0.24 0.19 80 1009.4
20181119213101 57 203 5.0 13.0 0.00 0.24 0.19 80 1009.4